Location: Leiter
(44.7178°N, 106.2687°W)
Time: 17:02:35
(UTC+00:00)

ESTCUBE 1 - Pass Details

Date: 30 June 2022
Orbit: 645 x 657 km, 97.9° (Epoch: 19 August)

Event Time Altitude Azimuth Distance (km) Brightness Sun altitude
Exits shadow 04:49:12 25° 139° (SE) 1,300 ? -15.0°
Maximum altitude 04:51:34 54° 73° (ENE) 786 ? -15.2°
Drops below altitude 10° 04:55:57 10° 356° (N) 2,059 ? -15.7°
Sets 04:58:12 0° 352° (N) 2,976 ? -15.9°
